Location: Aleksandria
(48.6657°N, 33.1137°E)
Time: 05:04:47
(UTC+02:00)

ISS - Visible Passes

Search period start: 29 November 2023 00:00
Search period end: 09 December 2023 00:00
Orbit: 416 x 418 km, 51.6° (Epoch: 29 November)

Date Brightness Start Highest point End Pass type
(mag) Time Alt. Az. Time Alt. Az. Time Alt. Az.
29 Nov -3.8 17:44:18 10° WNW 17:47:39 68° NNE 17:48:06 58° ENE visible
30 Nov -3.6 16:55:57 10° WNW 16:59:16 56° N 17:01:51 15° E visible
30 Nov -1.9 18:32:46 10° WNW 18:34:47 31° W 18:34:47 31° W visible
01 Dec -3.6 17:44:21 10° WNW 17:47:42 72° SSW 17:48:37 44° SE visible
02 Dec -3.8 16:55:55 10° WNW 16:59:17 84° NNE 17:02:33 11° ESE visible
02 Dec -1.5 18:33:01 10° W 18:35:29 23° SW 18:35:29 23° SW visible
03 Dec -2.2 17:44:20 10° W 17:47:25 34° SW 17:49:35 16° SSE visible
04 Dec -2.9 16:55:43 10° WNW 16:59:00 52° SSW 17:02:16 10° SE visible
04 Dec -0.5 18:34:37 10° SW 18:35:06 10° SW 18:35:35 10° SW visible
05 Dec -0.8 17:44:37 10° W 17:46:47 16° SW 17:48:57 10° S visible
06 Dec -1.3 16:55:35 10° W 16:58:23 24° SW 17:01:09 10° SSE visible
08 Dec -0.2 16:56:22 10° WSW 16:57:24 11° SW 16:58:27 10° SSW visible
